Year,Month,Day,Hour,Minute,Value (Times are PST for temperature in C)
2012,09,04,00,00,11.20
2012,09,04,00,01,11.20
2012,09,04,00,02,11.20
2012,09,04,00,03,11.20
2012,09,04,00,04,11.10
2012,09,04,00,05,11.10
2012,09,04,00,06,11.10
2012,09,04,00,07,11.10
2012,09,04,00,08,11.10
2012,09,04,00,09,11.00
2012,09,04,00,10,11.00
2012,09,04,00,11,11.00
2012,09,04,00,12,11.00
2012,09,04,00,13,11.00
2012,09,04,00,14,10.90
2012,09,04,00,15,10.90
2012,09,04,00,16,10.90
2012,09,04,00,17,10.90
2012,09,04,00,18,10.90
2012,09,04,00,19,10.90
2012,09,04,00,20,10.90
2012,09,04,00,21,10.90
2012,09,04,00,22,10.90
2012,09,04,00,23,10.90
2012,09,04,00,24,10.90
2012,09,04,00,25,10.90
2012,09,04,00,26,11.00
2012,09,04,00,27,11.00
2012,09,04,00,28,11.00
2012,09,04,00,29,10.90
2012,09,04,00,30,10.90
2012,09,04,00,31,10.90
2012,09,04,00,32,10.90
2012,09,04,00,33,10.90
2012,09,04,00,34,10.90
2012,09,04,00,35,10.90
2012,09,04,00,36,10.90
2012,09,04,00,37,10.90
2012,09,04,00,38,10.90
2012,09,04,00,39,11.00
2012,09,04,00,40,11.00
2012,09,04,00,41,11.00
2012,09,04,00,42,11.00
2012,09,04,00,43,11.00
2012,09,04,00,44,11.00
2012,09,04,00,45,11.00
2012,09,04,00,46,11.00
2012,09,04,00,47,11.00
2012,09,04,00,48,11.00
2012,09,04,00,49,10.90
2012,09,04,00,50,10.90
2012,09,04,00,51,10.90
2012,09,04,00,52,10.90
2012,09,04,00,53,10.90
2012,09,04,00,54,10.90
2012,09,04,00,55,10.80
2012,09,04,00,56,10.80
2012,09,04,00,57,10.80
2012,09,04,00,58,10.80
2012,09,04,00,59,10.80
2012,09,04,01,00,10.80
2012,09,04,01,01,10.80
2012,09,04,01,02,10.70
2012,09,04,01,03,10.70
2012,09,04,01,04,10.70
2012,09,04,01,05,10.70
2012,09,04,01,06,10.70
2012,09,04,01,07,10.70
2012,09,04,01,08,10.70
2012,09,04,01,09,10.70
2012,09,04,01,10,10.60
2012,09,04,01,11,10.60
2012,09,04,01,12,10.60
2012,09,04,01,13,10.60
2012,09,04,01,14,10.60
2012,09,04,01,15,10.60
2012,09,04,01,16,10.50
2012,09,04,01,17,10.50
2012,09,04,01,18,10.50
2012,09,04,01,19,10.50
2012,09,04,01,20,10.40
2012,09,04,01,21,10.40
2012,09,04,01,22,10.40
2012,09,04,01,23,10.40
2012,09,04,01,24,10.40
2012,09,04,01,25,10.40
2012,09,04,01,26,10.40
2012,09,04,01,27,10.40
2012,09,04,01,28,10.40
2012,09,04,01,29,10.40
2012,09,04,01,30,10.40
2012,09,04,01,31,10.40
2012,09,04,01,32,10.40
2012,09,04,01,33,10.40
2012,09,04,01,34,10.40
2012,09,04,01,35,10.40
2012,09,04,01,36,10.40
2012,09,04,01,37,10.40
2012,09,04,01,38,10.40
2012,09,04,01,39,10.40
2012,09,04,01,40,10.30
2012,09,04,01,41,10.30
2012,09,04,01,42,10.30
2012,09,04,01,43,10.30
2012,09,04,01,44,10.30
2012,09,04,01,45,10.30
2012,09,04,01,46,10.30
2012,09,04,01,47,10.30
2012,09,04,01,48,10.20
2012,09,04,01,49,10.30
2012,09,04,01,50,10.30
2012,09,04,01,51,10.30
2012,09,04,01,52,10.30
2012,09,04,01,53,10.30
2012,09,04,01,54,10.30
2012,09,04,01,55,10.30
2012,09,04,01,56,10.40
2012,09,04,01,57,10.40
2012,09,04,01,58,10.40
2012,09,04,01,59,10.40
2012,09,04,02,00,10.40
2012,09,04,02,01,10.40
2012,09,04,02,02,10.40
2012,09,04,02,03,10.40
2012,09,04,02,04,10.50
2012,09,04,02,05,10.50
2012,09,04,02,06,10.50
2012,09,04,02,07,10.50
2012,09,04,02,08,10.50
2012,09,04,02,09,10.50
2012,09,04,02,10,10.50
2012,09,04,02,11,10.40
2012,09,04,02,12,10.40
2012,09,04,02,13,10.40
2012,09,04,02,14,10.30
2012,09,04,02,15,10.30
2012,09,04,02,16,10.30
2012,09,04,02,17,10.30
2012,09,04,02,18,10.30
2012,09,04,02,19,10.30
2012,09,04,02,20,10.30
2012,09,04,02,21,10.30
2012,09,04,02,22,10.20
2012,09,04,02,23,10.20
2012,09,04,02,24,10.20
2012,09,04,02,25,10.20
2012,09,04,02,26,10.10
2012,09,04,02,27,10.10
2012,09,04,02,28,10.10
2012,09,04,02,29,10.00
2012,09,04,02,30,10.00
2012,09,04,02,31,9.90
2012,09,04,02,32,9.90
2012,09,04,02,33,9.90
2012,09,04,02,34,9.90
2012,09,04,02,35,9.90
2012,09,04,02,36,9.90
2012,09,04,02,37,9.90
2012,09,04,02,38,9.90
2012,09,04,02,39,9.90
2012,09,04,02,40,9.90
2012,09,04,02,41,9.90
2012,09,04,02,42,9.90
2012,09,04,02,43,10.00
2012,09,04,02,44,10.00
2012,09,04,02,45,9.90
2012,09,04,02,46,9.90
2012,09,04,02,47,9.90
2012,09,04,02,48,9.80
2012,09,04,02,49,9.80
2012,09,04,02,50,9.80
2012,09,04,02,51,9.80
2012,09,04,02,52,9.70
2012,09,04,02,53,9.70
2012,09,04,02,54,9.70
2012,09,04,02,55,9.60
2012,09,04,02,56,9.60
2012,09,04,02,57,9.60
2012,09,04,02,58,9.60
2012,09,04,02,59,9.60
2012,09,04,03,00,9.60
2012,09,04,03,01,9.60
2012,09,04,03,02,9.60
2012,09,04,03,03,9.60
2012,09,04,03,04,9.60
2012,09,04,03,05,9.60
2012,09,04,03,06,9.60
2012,09,04,03,07,9.60
2012,09,04,03,08,9.60
2012,09,04,03,09,9.60
2012,09,04,03,10,9.60
2012,09,04,03,11,9.60
2012,09,04,03,12,9.60
2012,09,04,03,13,9.50
2012,09,04,03,14,9.50
2012,09,04,03,15,9.50
2012,09,04,03,16,9.50
2012,09,04,03,17,9.50
2012,09,04,03,18,9.50
2012,09,04,03,19,9.50
2012,09,04,03,20,9.50
2012,09,04,03,21,9.50
2012,09,04,03,22,9.50
2012,09,04,03,23,9.50
2012,09,04,03,24,9.50
2012,09,04,03,25,9.50
2012,09,04,03,26,9.50
2012,09,04,03,27,9.50
2012,09,04,03,28,9.50
2012,09,04,03,29,9.50
2012,09,04,03,30,9.50
2012,09,04,03,31,9.50
2012,09,04,03,32,9.50
2012,09,04,03,33,9.50
2012,09,04,03,34,9.50
2012,09,04,03,35,9.50
2012,09,04,03,36,9.40
2012,09,04,03,37,9.40
2012,09,04,03,38,9.40
2012,09,04,03,39,9.40
2012,09,04,03,40,9.40
2012,09,04,03,41,9.40
2012,09,04,03,42,9.40
2012,09,04,03,43,9.30
2012,09,04,03,44,9.30
2012,09,04,03,45,9.30
2012,09,04,03,46,9.30
2012,09,04,03,47,9.30
2012,09,04,03,48,9.20
2012,09,04,03,49,9.20
2012,09,04,03,50,9.20
2012,09,04,03,51,9.20
2012,09,04,03,52,9.20
2012,09,04,03,53,9.10
2012,09,04,03,54,9.10
2012,09,04,03,55,9.10
2012,09,04,03,56,9.10
2012,09,04,03,57,9.00
2012,09,04,03,58,9.00
2012,09,04,03,59,9.00
2012,09,04,04,00,9.00
2012,09,04,04,01,9.00
2012,09,04,04,02,8.90
2012,09,04,04,03,8.90
2012,09,04,04,04,8.90
2012,09,04,04,05,8.90
2012,09,04,04,06,8.90
2012,09,04,04,07,8.90
2012,09,04,04,08,8.90
2012,09,04,04,09,8.80
2012,09,04,04,10,8.80
2012,09,04,04,11,8.80
2012,09,04,04,12,8.80
2012,09,04,04,13,8.80
2012,09,04,04,14,8.80
2012,09,04,04,15,8.80
2012,09,04,04,16,8.70
2012,09,04,04,17,8.70
2012,09,04,04,18,8.70
2012,09,04,04,19,8.70
2012,09,04,04,20,8.80
2012,09,04,04,21,8.80
2012,09,04,04,22,8.80
2012,09,04,04,23,8.80
2012,09,04,04,24,8.70
2012,09,04,04,25,8.70
2012,09,04,04,26,8.70
2012,09,04,04,27,8.70
2012,09,04,04,28,8.80
2012,09,04,04,29,8.80
2012,09,04,04,30,8.80
2012,09,04,04,31,8.80
2012,09,04,04,32,8.90
2012,09,04,04,33,8.90
2012,09,04,04,34,8.90
2012,09,04,04,35,8.80
2012,09,04,04,36,8.80
2012,09,04,04,37,8.80
2012,09,04,04,38,8.80
2012,09,04,04,39,8.80
2012,09,04,04,40,8.80
2012,09,04,04,41,8.80
2012,09,04,04,42,8.80
2012,09,04,04,43,8.80
2012,09,04,04,44,8.80
2012,09,04,04,45,8.80
2012,09,04,04,46,8.80
2012,09,04,04,47,8.70
2012,09,04,04,48,8.70
2012,09,04,04,49,8.70
2012,09,04,04,50,8.70
2012,09,04,04,51,8.70
2012,09,04,04,52,8.70
2012,09,04,04,53,8.80
2012,09,04,04,54,8.80
2012,09,04,04,55,8.80
2012,09,04,04,56,8.80
2012,09,04,04,57,8.80
2012,09,04,04,58,8.80
2012,09,04,04,59,8.80
2012,09,04,05,00,8.80
2012,09,04,05,01,8.80
2012,09,04,05,02,8.80
2012,09,04,05,03,8.80
2012,09,04,05,04,8.80
2012,09,04,05,05,8.80
2012,09,04,05,06,8.80
2012,09,04,05,07,8.80
2012,09,04,05,08,8.80
2012,09,04,05,09,8.80
2012,09,04,05,10,8.80
2012,09,04,05,11,8.80
2012,09,04,05,12,8.80
2012,09,04,05,13,8.90
2012,09,04,05,14,8.90
2012,09,04,05,15,8.90
2012,09,04,05,16,8.90
2012,09,04,05,17,8.90
2012,09,04,05,18,8.90
2012,09,04,05,19,8.90
2012,09,04,05,20,8.90
2012,09,04,05,21,8.90
2012,09,04,05,22,8.90
2012,09,04,05,23,8.90
2012,09,04,05,24,8.90
2012,09,04,05,25,8.90
2012,09,04,05,26,8.80
2012,09,04,05,27,8.80
2012,09,04,05,28,8.80
2012,09,04,05,29,8.80
2012,09,04,05,30,8.80
2012,09,04,05,31,8.80
2012,09,04,05,32,8.80
2012,09,04,05,33,8.80
2012,09,04,05,34,8.80
2012,09,04,05,35,8.80
2012,09,04,05,36,8.80
2012,09,04,05,37,8.80
2012,09,04,05,38,8.80
2012,09,04,05,39,8.80
2012,09,04,05,40,8.80
2012,09,04,05,41,8.80
2012,09,04,05,42,8.80
2012,09,04,05,43,8.80
2012,09,04,05,44,8.80
2012,09,04,05,45,8.80
2012,09,04,05,46,8.80
2012,09,04,05,47,8.80
2012,09,04,05,48,8.80
2012,09,04,05,49,8.80
2012,09,04,05,50,8.80
2012,09,04,05,51,8.80
2012,09,04,05,52,8.80
2012,09,04,05,53,8.70
2012,09,04,05,54,8.70
2012,09,04,05,55,8.70
2012,09,04,05,56,8.70
2012,09,04,05,57,8.70
2012,09,04,05,58,8.70
2012,09,04,05,59,8.60
2012,09,04,06,00,8.60
2012,09,04,06,01,8.50
2012,09,04,06,02,8.50
2012,09,04,06,03,8.40
2012,09,04,06,04,8.40
2012,09,04,06,05,8.40
2012,09,04,06,06,8.30
2012,09,04,06,07,8.30
2012,09,04,06,08,8.30
2012,09,04,06,09,8.30
2012,09,04,06,10,8.30
2012,09,04,06,11,8.30
2012,09,04,06,12,8.30
2012,09,04,06,13,8.30
2012,09,04,06,14,8.30
2012,09,04,06,15,8.30
2012,09,04,06,16,8.30
2012,09,04,06,17,8.30
2012,09,04,06,18,8.30
2012,09,04,06,19,8.30
2012,09,04,06,20,8.20
2012,09,04,06,21,8.20
2012,09,04,06,22,8.20
2012,09,04,06,23,8.20
2012,09,04,06,24,8.20
2012,09,04,06,25,8.20
2012,09,04,06,26,8.20
2012,09,04,06,27,8.20
2012,09,04,06,28,8.20
2012,09,04,06,29,8.20
2012,09,04,06,30,8.20
2012,09,04,06,31,8.10
2012,09,04,06,32,8.10
2012,09,04,06,33,8.10
2012,09,04,06,34,8.10
2012,09,04,06,35,8.10
2012,09,04,06,36,8.10
2012,09,04,06,37,8.10
2012,09,04,06,38,8.10
2012,09,04,06,39,8.10
2012,09,04,06,40,8.10
2012,09,04,06,41,8.10
2012,09,04,06,42,8.20
2012,09,04,06,43,8.20
2012,09,04,06,44,8.20
2012,09,04,06,45,8.20
2012,09,04,06,46,8.20
2012,09,04,06,47,8.20
2012,09,04,06,48,8.20
2012,09,04,06,49,8.20
2012,09,04,06,50,8.20
2012,09,04,06,51,8.10
2012,09,04,06,52,8.10
2012,09,04,06,53,8.10
2012,09,04,06,54,8.10
2012,09,04,06,55,8.00
2012,09,04,06,56,8.00
2012,09,04,06,57,8.00
2012,09,04,06,58,7.90
2012,09,04,06,59,7.90
2012,09,04,07,00,7.90
2012,09,04,07,01,7.90
2012,09,04,07,02,7.80
2012,09,04,07,03,7.80
2012,09,04,07,04,7.80
2012,09,04,07,05,7.90
2012,09,04,07,06,7.90
2012,09,04,07,07,7.90
2012,09,04,07,08,8.00
2012,09,04,07,09,8.00
2012,09,04,07,10,8.10
2012,09,04,07,11,8.10
2012,09,04,07,12,8.10
2012,09,04,07,13,8.20
2012,09,04,07,14,8.20
2012,09,04,07,15,8.20
2012,09,04,07,16,8.20
2012,09,04,07,17,8.20
2012,09,04,07,18,8.20
2012,09,04,07,19,8.20
2012,09,04,07,20,8.30
2012,09,04,07,21,8.30
2012,09,04,07,22,8.30
2012,09,04,07,23,8.30
2012,09,04,07,24,8.30
2012,09,04,07,25,8.40
2012,09,04,07,26,8.40
2012,09,04,07,27,8.40
2012,09,04,07,28,8.40
2012,09,04,07,29,8.50
2012,09,04,07,30,8.50
2012,09,04,07,31,8.50
2012,09,04,07,32,8.50
2012,09,04,07,33,8.60
2012,09,04,07,34,8.60
2012,09,04,07,35,8.60
2012,09,04,07,36,8.70
2012,09,04,07,37,8.70
2012,09,04,07,38,8.80
2012,09,04,07,39,8.80
2012,09,04,07,40,8.90
2012,09,04,07,41,8.90
2012,09,04,07,42,8.90
2012,09,04,07,43,9.00
2012,09,04,07,44,9.10
2012,09,04,07,45,9.10
2012,09,04,07,46,9.20
2012,09,04,07,47,9.30
2012,09,04,07,48,9.30
2012,09,04,07,49,9.40
2012,09,04,07,50,9.40
2012,09,04,07,51,9.40
2012,09,04,07,52,9.50
2012,09,04,07,53,9.50
2012,09,04,07,54,9.50
2012,09,04,07,55,9.60
2012,09,04,07,56,9.60
2012,09,04,07,57,9.60
2012,09,04,07,58,9.70
2012,09,04,07,59,9.70
2012,09,04,08,00,9.70
2012,09,04,08,01,9.80
2012,09,04,08,02,9.80
2012,09,04,08,03,9.80
2012,09,04,08,04,9.90
2012,09,04,08,05,9.90
2012,09,04,08,06,10.00
2012,09,04,08,07,10.00
2012,09,04,08,08,10.10
2012,09,04,08,09,10.10
2012,09,04,08,10,10.20
2012,09,04,08,11,10.30
2012,09,04,08,12,10.30
2012,09,04,08,13,10.40
2012,09,04,08,14,10.40
2012,09,04,08,15,10.50
2012,09,04,08,16,10.60
2012,09,04,08,17,10.70
2012,09,04,08,18,10.70
2012,09,04,08,19,10.80
2012,09,04,08,20,10.90
2012,09,04,08,21,11.00
2012,09,04,08,22,11.00
2012,09,04,08,23,11.10
2012,09,04,08,24,11.20
2012,09,04,08,25,11.30
2012,09,04,08,26,11.30
2012,09,04,08,27,11.40
2012,09,04,08,28,11.50
2012,09,04,08,29,11.60
2012,09,04,08,30,11.60
2012,09,04,08,31,11.70
2012,09,04,08,32,11.70
2012,09,04,08,33,11.80
2012,09,04,08,34,11.80
2012,09,04,08,35,11.90
2012,09,04,08,36,12.00
2012,09,04,08,37,12.10
2012,09,04,08,38,12.20
2012,09,04,08,39,12.40
2012,09,04,08,40,12.50
2012,09,04,08,41,12.60
2012,09,04,08,42,12.80
2012,09,04,08,43,12.90
2012,09,04,08,44,13.00
2012,09,04,08,45,13.20
2012,09,04,08,46,13.30
2012,09,04,08,47,13.40
2012,09,04,08,48,13.50
2012,09,04,08,49,13.50
2012,09,04,08,50,13.60
2012,09,04,08,51,13.70
2012,09,04,08,52,13.70
2012,09,04,08,53,13.80
2012,09,04,08,54,13.80
2012,09,04,08,55,13.90
2012,09,04,08,56,13.90
2012,09,04,08,57,13.90
2012,09,04,08,58,14.00
2012,09,04,08,59,14.10
2012,09,04,09,00,14.10
2012,09,04,09,01,14.20
2012,09,04,09,02,14.30
2012,09,04,09,03,14.30
2012,09,04,09,04,14.40
2012,09,04,09,05,14.50
2012,09,04,09,06,14.50
2012,09,04,09,07,14.60
2012,09,04,09,08,14.70
2012,09,04,09,09,14.80
2012,09,04,09,10,14.90
2012,09,04,09,11,14.90
2012,09,04,09,12,14.90
2012,09,04,09,13,15.00
2012,09,04,09,14,15.00
2012,09,04,09,15,15.00
2012,09,04,09,16,15.00
2012,09,04,09,17,15.00
2012,09,04,09,18,15.00
2012,09,04,09,19,15.00
2012,09,04,09,20,15.00
2012,09,04,09,21,15.00
2012,09,04,09,22,15.00
2012,09,04,09,23,15.10
2012,09,04,09,24,15.10
2012,09,04,09,25,15.10
2012,09,04,09,26,15.20
2012,09,04,09,27,15.20
2012,09,04,09,28,15.30
2012,09,04,09,29,15.30
2012,09,04,09,30,15.30
2012,09,04,09,31,15.40
2012,09,04,09,32,15.40
2012,09,04,09,33,15.50
2012,09,04,09,34,15.50
2012,09,04,09,35,15.60
2012,09,04,09,36,15.70
2012,09,04,09,37,15.70
2012,09,04,09,38,15.70
2012,09,04,09,39,15.80
2012,09,04,09,40,15.80
2012,09,04,09,41,15.80
2012,09,04,09,42,15.80
2012,09,04,09,43,15.80
2012,09,04,09,44,15.90
2012,09,04,09,45,15.90
2012,09,04,09,46,15.90
2012,09,04,09,47,15.90
2012,09,04,09,48,15.90
2012,09,04,09,49,15.90
2012,09,04,09,50,15.90
2012,09,04,09,51,15.90
2012,09,04,09,52,16.00
2012,09,04,09,53,16.00
2012,09,04,09,54,16.10
2012,09,04,09,55,16.10
2012,09,04,09,56,16.10
2012,09,04,09,57,16.10
2012,09,04,09,58,16.20
2012,09,04,09,59,16.20
2012,09,04,10,00,16.20
2012,09,04,10,01,16.30
2012,09,04,10,02,16.30
2012,09,04,10,03,16.30
2012,09,04,10,04,16.40
2012,09,04,10,05,16.40
2012,09,04,10,06,16.40
2012,09,04,10,07,16.40
2012,09,04,10,08,16.40
2012,09,04,10,09,16.40
2012,09,04,10,10,16.40
2012,09,04,10,11,16.50
2012,09,04,10,12,16.50
2012,09,04,10,13,16.50
2012,09,04,10,14,16.60
2012,09,04,10,15,16.60
2012,09,04,10,16,16.60
2012,09,04,10,17,16.70
2012,09,04,10,18,16.70
2012,09,04,10,19,16.70
2012,09,04,10,20,16.70
2012,09,04,10,21,16.70
2012,09,04,10,22,16.70
2012,09,04,10,23,16.70
2012,09,04,10,24,16.70
2012,09,04,10,25,16.70
2012,09,04,10,26,16.70
2012,09,04,10,27,16.70
2012,09,04,10,28,16.70
2012,09,04,10,29,16.70
2012,09,04,10,30,16.70
2012,09,04,10,31,16.70
2012,09,04,10,32,16.70
2012,09,04,10,33,16.70
2012,09,04,10,34,16.70
2012,09,04,10,35,16.70
2012,09,04,10,36,16.70
2012,09,04,10,37,16.70
2012,09,04,10,38,16.70
2012,09,04,10,39,16.70
2012,09,04,10,40,16.60
2012,09,04,10,41,16.60
2012,09,04,10,42,16.50
2012,09,04,10,43,16.40
2012,09,04,10,44,16.30
2012,09,04,10,45,16.20
2012,09,04,10,46,16.10
2012,09,04,10,47,16.00
2012,09,04,10,48,15.90
2012,09,04,10,49,15.90
2012,09,04,10,50,15.90
2012,09,04,10,51,15.90
2012,09,04,10,52,16.00
2012,09,04,10,53,16.00
2012,09,04,10,54,16.10
2012,09,04,10,55,16.10
2012,09,04,10,56,16.20
2012,09,04,10,57,16.20
2012,09,04,10,58,16.30
2012,09,04,10,59,16.40
2012,09,04,11,00,16.50
2012,09,04,11,01,16.60
2012,09,04,11,02,16.70
2012,09,04,11,03,16.70
2012,09,04,11,04,16.80
2012,09,04,11,05,16.90
2012,09,04,11,06,17.00
2012,09,04,11,07,17.10
2012,09,04,11,08,17.10
2012,09,04,11,09,17.20
2012,09,04,11,10,17.30
2012,09,04,11,11,17.30
2012,09,04,11,12,17.20
2012,09,04,11,13,17.20
2012,09,04,11,14,17.20
2012,09,04,11,15,17.20
2012,09,04,11,16,17.20
2012,09,04,11,17,17.20
2012,09,04,11,18,17.20
2012,09,04,11,19,17.10
2012,09,04,11,20,17.10
2012,09,04,11,21,17.10
2012,09,04,11,22,17.10
2012,09,04,11,23,17.20
2012,09,04,11,24,17.20
2012,09,04,11,25,17.20
2012,09,04,11,26,17.20
2012,09,04,11,27,17.10
2012,09,04,11,28,17.00
2012,09,04,11,29,17.00
2012,09,04,11,30,16.90
2012,09,04,11,31,16.80
2012,09,04,11,32,16.80
2012,09,04,11,33,16.70
2012,09,04,11,34,16.60
2012,09,04,11,35,16.60
2012,09,04,11,36,16.50
2012,09,04,11,37,16.50
2012,09,04,11,38,16.50
2012,09,04,11,39,16.40
2012,09,04,11,40,16.50
2012,09,04,11,41,16.40
2012,09,04,11,42,16.40
2012,09,04,11,43,16.40
2012,09,04,11,44,16.40
2012,09,04,11,45,16.40
2012,09,04,11,46,16.50
2012,09,04,11,47,16.50
2012,09,04,11,48,16.40
2012,09,04,11,49,16.40
2012,09,04,11,50,16.40
2012,09,04,11,51,16.40
2012,09,04,11,52,16.50
2012,09,04,11,53,16.50
2012,09,04,11,54,16.60
2012,09,04,11,55,16.70
2012,09,04,11,56,16.70
2012,09,04,11,57,16.70
2012,09,04,11,58,16.70
2012,09,04,11,59,16.70
2012,09,04,12,00,16.80
2012,09,04,12,01,16.80
2012,09,04,12,02,16.90
2012,09,04,12,03,16.90
2012,09,04,12,04,16.90
2012,09,04,12,05,17.00
2012,09,04,12,06,17.10
2012,09,04,12,07,17.20
2012,09,04,12,08,17.30
2012,09,04,12,09,17.40
2012,09,04,12,10,17.50
2012,09,04,12,11,17.60
2012,09,04,12,12,17.60
2012,09,04,12,13,17.60
2012,09,04,12,14,17.60
2012,09,04,12,15,17.50
2012,09,04,12,16,17.40
2012,09,04,12,17,17.40
2012,09,04,12,18,17.50
2012,09,04,12,19,17.50
2012,09,04,12,20,17.50
2012,09,04,12,21,17.40
2012,09,04,12,22,17.40
2012,09,04,12,23,17.30
2012,09,04,12,24,17.20
2012,09,04,12,25,17.10
2012,09,04,12,26,17.00
2012,09,04,12,27,17.00
2012,09,04,12,28,16.90
2012,09,04,12,29,16.80
2012,09,04,12,30,16.80
2012,09,04,12,31,16.70
2012,09,04,12,32,16.70
2012,09,04,12,33,16.70
2012,09,04,12,34,16.70
2012,09,04,12,35,16.70
2012,09,04,12,36,16.80
2012,09,04,12,37,16.80
2012,09,04,12,38,16.90
2012,09,04,12,39,17.00
2012,09,04,12,40,17.10
2012,09,04,12,41,17.20
2012,09,04,12,42,17.40
2012,09,04,12,43,17.50
2012,09,04,12,44,17.60
2012,09,04,12,45,17.70
2012,09,04,12,46,17.80
2012,09,04,12,47,17.80
2012,09,04,12,48,17.90
2012,09,04,12,49,17.90
2012,09,04,12,50,17.80
2012,09,04,12,51,17.80
2012,09,04,12,52,17.70
2012,09,04,12,53,17.70
2012,09,04,12,54,17.70
2012,09,04,12,55,17.70
2012,09,04,12,56,17.70
2012,09,04,12,57,17.70
2012,09,04,12,58,17.70
2012,09,04,12,59,17.60
2012,09,04,13,00,17.60
2012,09,04,13,01,17.50
2012,09,04,13,02,17.40
2012,09,04,13,03,17.40
2012,09,04,13,04,17.40
2012,09,04,13,05,17.30
2012,09,04,13,06,17.30
2012,09,04,13,07,17.30
2012,09,04,13,08,17.30
2012,09,04,13,09,17.20
2012,09,04,13,10,17.20
2012,09,04,13,11,17.20
2012,09,04,13,12,17.20
2012,09,04,13,13,17.20
2012,09,04,13,14,17.20
2012,09,04,13,15,17.10
2012,09,04,13,16,17.10
2012,09,04,13,17,17.10
2012,09,04,13,18,17.20
2012,09,04,13,19,17.30
2012,09,04,13,20,17.40
2012,09,04,13,21,17.40
2012,09,04,13,22,17.40
2012,09,04,13,23,17.50
2012,09,04,13,24,17.50
2012,09,04,13,25,17.60
2012,09,04,13,26,17.60
2012,09,04,13,27,17.70
2012,09,04,13,28,17.70
2012,09,04,13,29,17.80
2012,09,04,13,30,17.90
2012,09,04,13,31,18.00
2012,09,04,13,32,18.10
2012,09,04,13,33,18.20
2012,09,04,13,34,18.30
2012,09,04,13,35,18.40
2012,09,04,13,36,18.40
2012,09,04,13,37,18.40
2012,09,04,13,38,18.50
2012,09,04,13,39,18.50
2012,09,04,13,40,18.40
2012,09,04,13,41,18.30
2012,09,04,13,42,18.20
2012,09,04,13,43,18.10
2012,09,04,13,44,18.10
2012,09,04,13,45,18.10
2012,09,04,13,46,18.20
2012,09,04,13,47,18.20
2012,09,04,13,48,18.30
2012,09,04,13,49,18.30
2012,09,04,13,50,18.40
2012,09,04,13,51,18.40
2012,09,04,13,52,18.40
2012,09,04,13,53,18.40
2012,09,04,13,54,18.40
2012,09,04,13,55,18.40
2012,09,04,13,56,18.40
2012,09,04,13,57,18.30
2012,09,04,13,58,18.30
2012,09,04,13,59,18.30
2012,09,04,14,00,18.30
2012,09,04,14,01,18.30
2012,09,04,14,02,18.30
2012,09,04,14,03,18.30
2012,09,04,14,04,18.40
2012,09,04,14,05,18.50
2012,09,04,14,06,18.60
2012,09,04,14,07,18.70
2012,09,04,14,08,18.70
2012,09,04,14,09,18.70
2012,09,04,14,10,18.60
2012,09,04,14,11,18.50
2012,09,04,14,12,18.40
2012,09,04,14,13,18.40
2012,09,04,14,14,18.40
2012,09,04,14,15,18.50
2012,09,04,14,16,18.60
2012,09,04,14,17,18.70
2012,09,04,14,18,18.80
2012,09,04,14,19,19.00
2012,09,04,14,20,19.10
2012,09,04,14,21,19.30
2012,09,04,14,22,19.40
2012,09,04,14,23,19.40
2012,09,04,14,24,19.40
2012,09,04,14,25,19.40
2012,09,04,14,26,19.30
2012,09,04,14,27,19.20
2012,09,04,14,28,19.20
2012,09,04,14,29,19.20
2012,09,04,14,30,19.20
2012,09,04,14,31,19.20
2012,09,04,14,32,19.10
2012,09,04,14,33,19.10
2012,09,04,14,34,19.10
2012,09,04,14,35,19.10
2012,09,04,14,36,19.20
2012,09,04,14,37,19.30
2012,09,04,14,38,19.40
2012,09,04,14,39,19.50
2012,09,04,14,40,19.60
2012,09,04,14,41,19.70
2012,09,04,14,42,19.70
2012,09,04,14,43,19.70
2012,09,04,14,44,19.70
2012,09,04,14,45,19.70
2012,09,04,14,46,19.70
2012,09,04,14,47,19.60
2012,09,04,14,48,19.50
2012,09,04,14,49,19.40
2012,09,04,14,50,19.30
2012,09,04,14,51,19.20
2012,09,04,14,52,19.20
2012,09,04,14,53,19.30
2012,09,04,14,54,19.30
2012,09,04,14,55,19.40
2012,09,04,14,56,19.50
2012,09,04,14,57,19.50
2012,09,04,14,58,19.50
2012,09,04,14,59,19.40
2012,09,04,15,00,19.30
2012,09,04,15,01,19.20
2012,09,04,15,02,19.20
2012,09,04,15,03,19.30
2012,09,04,15,04,19.40
2012,09,04,15,05,19.40
2012,09,04,15,06,19.50
2012,09,04,15,07,19.60
2012,09,04,15,08,19.80
2012,09,04,15,09,19.90
2012,09,04,15,10,20.00
2012,09,04,15,11,20.00
2012,09,04,15,12,20.20
2012,09,04,15,13,20.30
2012,09,04,15,14,20.50
2012,09,04,15,15,20.60
2012,09,04,15,16,20.80
2012,09,04,15,17,21.00
2012,09,04,15,18,21.10
2012,09,04,15,19,21.10
2012,09,04,15,20,21.00
2012,09,04,15,21,20.80
2012,09,04,15,22,20.70
2012,09,04,15,23,20.50
2012,09,04,15,24,20.40
2012,09,04,15,25,20.30
2012,09,04,15,26,20.30
2012,09,04,15,27,20.30
2012,09,04,15,28,20.30
2012,09,04,15,29,20.30
2012,09,04,15,30,20.30
2012,09,04,15,31,20.40
2012,09,04,15,32,20.50
2012,09,04,15,33,20.60
2012,09,04,15,34,20.80
2012,09,04,15,35,20.90
2012,09,04,15,36,21.00
2012,09,04,15,37,21.10
2012,09,04,15,38,21.30
2012,09,04,15,39,21.40
2012,09,04,15,40,21.50
2012,09,04,15,41,21.60
2012,09,04,15,42,21.60
2012,09,04,15,43,21.70
2012,09,04,15,44,21.70
2012,09,04,15,45,21.70
2012,09,04,15,46,21.60
2012,09,04,15,47,21.50
2012,09,04,15,48,21.40
2012,09,04,15,49,21.30
2012,09,04,15,50,21.30
2012,09,04,15,51,21.20
2012,09,04,15,52,21.20
2012,09,04,15,53,21.20
2012,09,04,15,54,21.10
2012,09,04,15,55,21.10
2012,09,04,15,56,21.10
2012,09,04,15,57,21.10
2012,09,04,15,58,21.10
2012,09,04,15,59,21.10
2012,09,04,16,00,21.10
2012,09,04,16,01,21.20
2012,09,04,16,02,21.20
2012,09,04,16,03,21.20
2012,09,04,16,04,21.20
2012,09,04,16,05,21.20
2012,09,04,16,06,21.10
2012,09,04,16,07,21.10
2012,09,04,16,08,21.10
2012,09,04,16,09,21.10
2012,09,04,16,10,21.10
2012,09,04,16,11,21.00
2012,09,04,16,12,20.90
2012,09,04,16,13,20.90
2012,09,04,16,14,20.80
2012,09,04,16,15,20.80
2012,09,04,16,16,20.70
2012,09,04,16,17,20.70
2012,09,04,16,18,20.70
2012,09,04,16,19,20.70
2012,09,04,16,20,20.70
2012,09,04,16,21,20.60
2012,09,04,16,22,20.70
2012,09,04,16,23,20.70
2012,09,04,16,24,20.70
2012,09,04,16,25,20.70
2012,09,04,16,26,20.80
2012,09,04,16,27,20.80
2012,09,04,16,28,20.80
2012,09,04,16,29,20.90
2012,09,04,16,30,20.90
2012,09,04,16,31,20.90
2012,09,04,16,32,20.90
2012,09,04,16,33,20.80
2012,09,04,16,34,20.80
2012,09,04,16,35,20.80
2012,09,04,16,36,20.80
2012,09,04,16,37,20.80
2012,09,04,16,38,20.80
2012,09,04,16,39,20.80
2012,09,04,16,40,20.70
2012,09,04,16,41,20.60
2012,09,04,16,42,20.50
2012,09,04,16,43,20.50
2012,09,04,16,44,20.50
2012,09,04,16,45,20.50
2012,09,04,16,46,20.50
2012,09,04,16,47,20.50
2012,09,04,16,48,20.50
2012,09,04,16,49,20.40
2012,09,04,16,50,20.40
2012,09,04,16,51,20.30
2012,09,04,16,52,20.30
2012,09,04,16,53,20.30
2012,09,04,16,54,20.30
2012,09,04,16,55,20.30
2012,09,04,16,56,20.40
2012,09,04,16,57,20.40
2012,09,04,16,58,20.40
2012,09,04,16,59,20.40
2012,09,04,17,00,20.40
2012,09,04,17,01,20.40
2012,09,04,17,02,20.40
2012,09,04,17,03,20.50
2012,09,04,17,04,20.50
2012,09,04,17,05,20.50
2012,09,04,17,06,20.50
2012,09,04,17,07,20.50
2012,09,04,17,08,20.50
2012,09,04,17,09,20.50
2012,09,04,17,10,20.50
2012,09,04,17,11,20.40
2012,09,04,17,12,20.50
2012,09,04,17,13,20.50
2012,09,04,17,14,20.50
2012,09,04,17,15,20.60
2012,09,04,17,16,20.60
2012,09,04,17,17,20.60
2012,09,04,17,18,20.70
2012,09,04,17,19,20.70
2012,09,04,17,20,20.70
2012,09,04,17,21,20.70
2012,09,04,17,22,20.70
2012,09,04,17,23,20.80
2012,09,04,17,24,20.80
2012,09,04,17,25,20.80
2012,09,04,17,26,20.80
2012,09,04,17,27,20.80
2012,09,04,17,28,20.70
2012,09,04,17,29,20.70
2012,09,04,17,30,20.70
2012,09,04,17,31,20.70
2012,09,04,17,32,20.70
2012,09,04,17,33,20.70